Previsão horária em Ablazino

Hoje, 11 Abril, Domingo

Tempo Temperatura Precipitação Vento Pressão Humidade
00:00 +1°C° 0.1 mm 4 m/s 744 mmHg 83%
01:00 +1°C° 0.1 mm 3 m/s 745 mmHg 89%
02:00 +2°C° 0.1 mm 2 m/s 746 mmHg 96%
03:00 +1°C° 0 mm 2 m/s 746 mmHg 96%
04:00 +1°C° 0 mm 2 m/s 747 mmHg 96%
05:00 +1°C° 0 mm 1 m/s 747 mmHg 96%
06:00 +1°C° 0 mm 2 m/s 748 mmHg 88%
07:00 +3°C° 0 mm 2 m/s 749 mmHg 81%
08:00 +4°C° 0 mm 2 m/s 749 mmHg 73%
09:00 +5°C° 0 mm 2 m/s 750 mmHg 65%
10:00 +6°C° 0 mm 2 m/s 750 mmHg 58%
11:00 +7°C° 0 mm 2 m/s 751 mmHg 50%
12:00 +7°C° 0 mm 2 m/s 751 mmHg 49%
13:00 +8°C° 0 mm 2 m/s 751 mmHg 47%
14:00 +9°C° 0 mm 2 m/s 751 mmHg 45%
15:00 +9°C° 0 mm 1 m/s 752 mmHg 51%
16:00 +9°C° 0 mm 1 m/s 752 mmHg 58%
17:00 +8°C° 0 mm 1 m/s 752 mmHg 64%
18:00 +7°C° 0 mm 1 m/s 752 mmHg 72%
19:00 +6°C° 0 mm 1 m/s 753 mmHg 81%
20:00 +4°C° 0 mm 1 m/s 753 mmHg 90%
21:00 +4°C° 0 mm 1 m/s 753 mmHg 91%
22:00 +3°C° 0 mm 2 m/s 753 mmHg 92%
23:00 +3°C° 0 mm 2 m/s 753 mmHg 93%

Amanhã, 12 Abril, Segunda-feira

Tempo Temperatura Precipitação Vento Pressão Humidade
00:00 +3°C° 0 mm 2 m/s 753 mmHg 92%
01:00 +4°C° 0 mm 2 m/s 753 mmHg 92%
02:00 +5°C° 0 mm 1 m/s 753 mmHg 92%
03:00 +4°C° 0 mm 2 m/s 753 mmHg 92%
04:00 +4°C° 0 mm 2 m/s 753 mmHg 92%
05:00 +4°C° 0 mm 2 m/s 753 mmHg 93%
06:00 +5°C° 0 mm 2 m/s 753 mmHg 90%
07:00 +6°C° 0 mm 2 m/s 753 mmHg 87%
08:00 +6°C° 0 mm 2 m/s 753 mmHg 84%
09:00 +8°C° 0 mm 3 m/s 753 mmHg 74%
10:00 +11°C° 0 mm 3 m/s 753 mmHg 65%
11:00 +13°C° 0 mm 4 m/s 753 mmHg 56%
12:00 +13°C° 0 mm 4 m/s 753 mmHg 53%
13:00 +14°C° 0 mm 4 m/s 752 mmHg 51%
14:00 +14°C° 0 mm 4 m/s 752 mmHg 49%
15:00 +14°C° 0 mm 4 m/s 751 mmHg 53%
16:00 +13°C° 0 mm 4 m/s 751 mmHg 57%
17:00 +12°C° 0 mm 3 m/s 751 mmHg 60%
18:00 +11°C° 0 mm 3 m/s 750 mmHg 66%
19:00 +9°C° 0 mm 3 m/s 750 mmHg 72%
20:00 +8°C° 0 mm 3 m/s 750 mmHg 78%
21:00 +8°C° 0 mm 3 m/s 749 mmHg 78%
22:00 +8°C° 0 mm 3 m/s 749 mmHg 79%
23:00 +8°C° 0 mm 3 m/s 749 mmHg 80%

Depois de amanhã, 13 Abril, Terça-feira

Tempo Temperatura Precipitação Vento Pressão Humidade
00:00 +7°C° 0.1 mm 3 m/s 748 mmHg 83%
01:00 +7°C° 0.1 mm 3 m/s 748 mmHg 86%
02:00 +5°C° 0.1 mm 3 m/s 748 mmHg 89%
03:00 +5°C° 0 mm 3 m/s 747 mmHg 91%
04:00 +5°C° 0 mm 3 m/s 747 mmHg 93%
05:00 +5°C° 0 mm 3 m/s 747 mmHg 95%
06:00 +7°C° 0 mm 3 m/s 746 mmHg 91%
07:00 +8°C° 0 mm 3 m/s 746 mmHg 87%
08:00 +9°C° 0 mm 3 m/s 746 mmHg 83%
09:00 +11°C° 0 mm 3 m/s 746 mmHg 78%
10:00 +13°C° 0 mm 2 m/s 746 mmHg 72%
11:00 +15°C° 0 mm 2 m/s 745 mmHg 67%
12:00 +14°C° 0.1 mm 2 m/s 745 mmHg 71%
13:00 +13°C° 0.1 mm 2 m/s 745 mmHg 76%
14:00 +13°C° 0.1 mm 1 m/s 745 mmHg 80%
15:00 +12°C° 0.5 mm 1 m/s 745 mmHg 84%
16:00 +12°C° 0.5 mm 1 m/s 745 mmHg 88%
17:00 +11°C° 0.5 mm 1 m/s 744 mmHg 93%
18:00 +11°C° 0.2 mm 1 m/s 744 mmHg 93%
19:00 +11°C° 0.2 mm 1 m/s 744 mmHg 93%
20:00 +9°C° 0.2 mm 2 m/s 744 mmHg 93%
21:00 +10°C° 0.1 mm 1 m/s 744 mmHg 93%
22:00 +10°C° 0.1 mm 1 m/s 744 mmHg 94%
23:00 +10°C° 0.1 mm 1 m/s 744 mmHg 95%

14 Abril, Quarta-feira

Tempo Temperatura Precipitação Vento Pressão Humidade
00:00 +10°C° 0.2 mm 1 m/s 743 mmHg 95%
01:00 +10°C° 0.2 mm 1 m/s 743 mmHg 96%
02:00 +10°C° 0.2 mm 1 m/s 743 mmHg 97%
03:00 +9°C° 0.3 mm 1 m/s 743 mmHg 97%
04:00 +9°C° 0.3 mm 1 m/s 743 mmHg 98%
05:00 +9°C° 0.3 mm 1 m/s 743 mmHg 98%
06:00 +7°C° 0.3 mm 2 m/s 743 mmHg 96%
07:00 +7°C° 0.3 mm 2 m/s 743 mmHg 93%
08:00 +7°C° 0.3 mm 2 m/s 744 mmHg 91%
09:00 +7°C° 0.1 mm 2 m/s 744 mmHg 87%
10:00 +7°C° 0.1 mm 2 m/s 744 mmHg 83%
11:00 +8°C° 0.1 mm 3 m/s 745 mmHg 79%
12:00 +8°C° 0 mm 3 m/s 745 mmHg 75%
13:00 +9°C° 0 mm 3 m/s 745 mmHg 70%
14:00 +9°C° 0 mm 3 m/s 745 mmHg 66%
15:00 +9°C° 0 mm 3 m/s 745 mmHg 65%
16:00 +8°C° 0 mm 3 m/s 746 mmHg 64%
17:00 +8°C° 0 mm 3 m/s 746 mmHg 64%
18:00 +5°C° 0 mm 3 m/s 746 mmHg 67%
19:00 +5°C° 0 mm 2 m/s 746 mmHg 70%
20:00 +4°C° 0 mm 2 m/s 746 mmHg 73%
21:00 +4°C° 0 mm 2 m/s 746 mmHg 75%
22:00 +3°C° 0 mm 2 m/s 747 mmHg 77%
23:00 +3°C° 0 mm 2 m/s 747 mmHg 78%

15 Abril, Quinta-feira

Tempo Temperatura Precipitação Vento Pressão Humidade
00:00 +3°C° 0 mm 2 m/s 747 mmHg 79%
01:00 +3°C° 0 mm 2 m/s 747 mmHg 79%
02:00 +2°C° 0 mm 2 m/s 747 mmHg 79%
03:00 +2°C° 0 mm 2 m/s 747 mmHg 80%
04:00 +1°C° 0 mm 2 m/s 747 mmHg 80%
05:00 +1°C° 0 mm 2 m/s 747 mmHg 81%
06:00 +2°C° 0 mm 2 m/s 747 mmHg 76%
07:00 +1°C° 0 mm 3 m/s 747 mmHg 70%
08:00 +2°C° 0 mm 3 m/s 747 mmHg 65%
09:00 +3°C° 0 mm 3 m/s 747 mmHg 60%
10:00 +4°C° 0 mm 3 m/s 747 mmHg 56%
11:00 +5°C° 0 mm 3 m/s 747 mmHg 51%
12:00 +5°C° 0 mm 3 m/s 747 mmHg 47%
13:00 +6°C° 0 mm 4 m/s 746 mmHg 44%
14:00 +7°C° 0 mm 4 m/s 746 mmHg 40%
15:00 +6°C° 0 mm 4 m/s 746 mmHg 41%
16:00 +7°C° 0 mm 3 m/s 746 mmHg 42%
17:00 +7°C° 0 mm 3 m/s 746 mmHg 43%
18:00 +4°C° 0 mm 3 m/s 746 mmHg 51%
19:00 +3°C° 0 mm 3 m/s 746 mmHg 59%
20:00 +2°C° 0 mm 3 m/s 746 mmHg 67%
21:00 +1°C° 0 mm 3 m/s 747 mmHg 71%
22:00 +1°C° 0 mm 3 m/s 747 mmHg 75%
23:00 -1°C° 0 mm 4 m/s 747 mmHg 79%

16 Abril, Sexta-feira

Tempo Temperatura Precipitação Vento Pressão Humidade
00:00 -1°C° 0 mm 4 m/s 747 mmHg 80%
01:00 -2°C° 0 mm 4 m/s 747 mmHg 81%
02:00 -2°C° 0 mm 5 m/s 748 mmHg 82%
03:00 -2°C° 0 mm 5 m/s 748 mmHg 80%
04:00 -4°C° 0 mm 5 m/s 748 mmHg 79%
05:00 -4°C° 0 mm 5 m/s 748 mmHg 78%
06:00 -2°C° 0 mm 5 m/s 749 mmHg 75%
07:00 -1°C° 0 mm 5 m/s 749 mmHg 73%
08:00 -1°C° 0 mm 5 m/s 750 mmHg 71%
09:00 -1°C° 0 mm 6 m/s 750 mmHg 67%
10:00 +1°C° 0 mm 6 m/s 750 mmHg 63%
11:00 +2°C° 0 mm 6 m/s 751 mmHg 60%
12:00 +2°C° 0 mm 6 m/s 751 mmHg 58%
13:00 +2°C° 0 mm 6 m/s 751 mmHg 55%
14:00 +2°C° 0 mm 6 m/s 751 mmHg 53%
15:00 +2°C° 0 mm 6 m/s 752 mmHg 53%
16:00 +1°C° 0 mm 6 m/s 752 mmHg 53%
17:00 +1°C° 0 mm 6 m/s 752 mmHg 53%
18:00 0°C° 0 mm 5 m/s 752 mmHg 54%
19:00 -1°C° 0 mm 5 m/s 753 mmHg 55%
20:00 -2°C° 0 mm 4 m/s 753 mmHg 56%
21:00 -3°C° 0 mm 4 m/s 753 mmHg 57%
22:00 -3°C° 0 mm 4 m/s 753 mmHg 58%
23:00 -4°C° 0 mm 4 m/s 753 mmHg 59%
Mostrar mais